GW4277 Weather Reports


Display with metric or nautical units.
time (UTC)temp
F
wind
direction
speed
MPH
gust
MPH
rain 1hr
in
rain 24hr
in
rain mn
in
humidity
%
barometer
mb
20260504150924 63 88 12.0 15.0 0.00 0.00 0.00 38 1004.4
20260504150421 63 102 8.0 12.0 0.00 0.00 0.00 41 1003.9
20260504140846 61 236 6.0 7.0 0.00 0.00 0.00 50 1003.2
20260504140342 61 104 12.0 14.0 0.00 0.00 0.00 50 1003.2
20260504130811 58 332 13.0 15.0 0.00 0.00 0.00 59 1002.7
20260504130307 57 357 9.0 10.0 0.00 0.00 0.00 61 1002.5
20260504120231 50 30 2.0 3.0 0.00 0.00 0.00 67 1001.7
20260504110658 50 337 3.0 3.0 0.00 0.00 0.00 66 1001.5
20260504110154 50 85 3.0 5.0 0.00 0.00 0.00 66 1001.7
20260504100119 52 215 4.0 5.0 0.00 0.00 0.00 63 1002.3
20260504081512 51 193 3.0 3.0 0.00 0.00 0.00 60 1003.4
20260504081007 51 326 3.0 5.0 0.00 0.00 0.00 60 1003.2
20260504080504 51 304 3.0 5.0 0.00 0.00 0.00 60 1003.3
20260504050305 54 85 2.0 3.0 0.00 0.00 0.00 51 1005.7
20260504045802 54 45 3.0 3.0 0.00 0.00 0.00 50 1005.8
20260504045257 54 109 0.0 0.0 0.00 0.00 0.00 51 1005.7
20260504044754 55 126 0.0 0.0 0.00 0.00 0.00 50 1005.7
20260504044252 55 78 2.0 2.0 0.00 0.00 0.00 49 1005.7
20260504043749 56 95 2.0 2.0 0.00 0.00 0.00 48 1005.7
20260504043246 56 124 0.0 0.0 0.00 0.00 0.00 49 1006.0
20260504042744 56 122 0.0 0.0 0.00 0.00 0.00 49 1006.0
20260504042240 56 148 1.0 2.0 0.00 0.00 0.00 48 1006.2
20260504041736 56 132 0.0 2.0 0.00 0.00 0.00 49 1006.4
20260504041232 56 213 2.0 3.0 0.00 0.00 0.00 49 1006.3
20260504040728 57 123 1.0 2.0 0.00 0.00 0.00 48 1006.6
20260504040226 56 114 2.0 2.0 0.00 0.00 0.00 48 1006.7
20260504035722 56 212 3.0 3.0 0.00 0.00 0.00 47 1006.6
20260504035219 56 132 0.0 2.0 0.00 0.00 0.00 48 1006.7
20260504034716 56 121 0.0 0.0 0.00 0.00 0.00 48 1006.7
20260504034213 57 122 0.0 0.0 0.00 0.00 0.00 48 1006.9
20260504033706 57 123 0.0 2.0 0.00 0.00 0.00 47 1007.0
20260504033203 58 116 1.0 2.0 0.00 0.00 0.00 47 1007.0
20260504032659 59 116 0.0 0.0 0.00 0.00 0.00 46 1007.1
20260504032157 59 59 2.0 2.0 0.00 0.00 0.00 45 1007.1
20260504031653 60 177 2.0 2.0 0.00 0.00 0.00 44 1007.3
20260504031149 60 115 2.0 2.0 0.00 0.00 0.00 43 1007.3
20260504030646 61 94 2.0 2.0 0.00 0.00 0.00 43 1007.3
20260504030137 61 44 2.0 3.0 0.00 0.00 0.00 42 1007.3
20260504025634 62 355 2.0 3.0 0.00 0.00 0.00 42 1007.2
20260504025131 62 55 2.0 3.0 0.00 0.00 0.00 41 1007.5
20260504024628 62 48 3.0 5.0 0.00 0.00 0.00 41 1007.5
20260504024124 62 103 2.0 2.0 0.00 0.00 0.00 41 1007.4
20260504023621 63 14 3.0 5.0 0.00 0.00 0.00 41 1007.4
20260504023116 63 340 3.0 3.0 0.00 0.00 0.00 41 1007.4
20260504022613 63 98 2.0 3.0 0.00 0.00 0.00 41 1007.4
20260504022109 62 74 0.0 2.0 0.00 0.00 0.00 41 1007.4
20260504021608 62 101 0.0 2.0 0.00 0.00 0.00 41 1007.5
20260504021104 63 82 0.0 2.0 0.00 0.00 0.00 41 1007.4
20260504020600 63 128 0.0 0.0 0.00 0.00 0.00 41 1007.4
20260504020057 64 98 1.0 2.0 0.00 0.00 0.00 39 1007.6
20260504015554 65 125 1.0 3.0 0.00 0.00 0.00 39 1007.5
20260504015049 65 323 3.0 5.0 0.00 0.00 0.00 38 1007.5
20260504014546 65 326 3.0 3.0 0.00 0.00 0.00 38 1007.4
20260504014043 66 130 0.0 0.0 0.00 0.00 0.00 38 1007.6
20260504013541 66 25 2.0 3.0 0.00 0.00 0.00 37 1007.5
20260504013037 66 103 2.0 2.0 0.00 0.00 0.00 37 1007.8
20260504012535 67 57 2.0 2.0 0.00 0.00 0.00 37 1007.8
20260504012028 67 163 3.0 5.0 0.00 0.00 0.00 36 1007.6
20260504011524 68 108 3.0 3.0 0.00 0.00 0.00 36 1007.6
20260504011020 68 327 2.0 3.0 0.00 0.00 0.00 36 1007.9
20260504010515 69 330 4.0 5.0 0.00 0.00 0.00 35 1007.6
20260504010011 69 331 6.0 9.0 0.00 0.00 0.00 34 1007.8
20260504005508 70 346 5.0 7.0 0.00 0.00 0.00 33 1007.9
20260504005006 70 136 3.0 3.0 0.00 0.00 0.00 33 1007.8
20260504004503 71 308 9.0 14.0 0.00 0.00 0.00 32 1007.8
20260504004000 71 238 3.0 5.0 0.00 0.00 0.00 32 1007.9
20260504003456 71 343 4.0 5.0 0.00 0.00 0.00 33 1007.9
20260504002953 71 303 5.0 9.0 0.00 0.00 0.00 33 1007.9
20260504002450 71 347 6.0 9.0 0.00 0.00 0.00 32 1007.9
20260504001948 71 344 2.0 3.0 0.00 0.00 0.00 32 1008.0
20260504001445 71 317 6.0 9.0 0.00 0.00 0.00 31 1008.0
20260504000942 71 276 8.0 12.0 0.00 0.00 0.00 32 1008.1
20260504000439 72 193 6.0 7.0 0.00 0.00 0.00 32 1008.1
20260503235936 71 310 11.0 15.0 0.00 0.00 0.00 31 1008.3
20260503235433 72 339 12.0 15.0 0.00 0.00 0.00 31 1008.2
20260503234931 72 340 8.0 10.0 0.00 0.00 0.00 32 1008.4
20260503234428 72 18 4.0 7.0 0.00 0.00 0.00 31 1008.4
20260503233926 72 73 3.0 5.0 0.00 0.00 0.00 31 1008.4
20260503233422 72 346 10.0 10.0 0.00 0.00 0.00 31 1008.6
20260503232919 72 327 11.0 12.0 0.00 0.00 0.00 31 1008.6
20260503232416 72 322 11.0 14.0 0.00 0.00 0.00 31 1008.5
20260503231914 72 68 5.0 7.0 0.00 0.00 0.00 32 1008.7
20260503231411 72 270 6.0 9.0 0.00 0.00 0.00 31 1008.8
20260503230907 73 322 6.0 9.0 0.00 0.00 0.00 32 1008.8
20260503230403 72 65 5.0 7.0 0.00 0.00 0.00 31 1009.0
20260503225901 72 307 7.0 9.0 0.00 0.00 0.00 33 1008.7
20260503225357 72 336 6.0 7.0 0.00 0.00 0.00 33 1008.9
20260503224853 73 265 12.0 17.0 0.00 0.00 0.00 32 1008.9
20260503224351 73 274 4.0 7.0 0.00 0.00 0.00 31 1009.0
20260503223848 73 329 10.0 12.0 0.00 0.00 0.00 30 1009.0
20260503223346 73 10 9.0 12.0 0.00 0.00 0.00 30 1008.9
20260503222841 73 326 8.0 10.0 0.00 0.00 0.00 31 1009.1
20260503222340 72 338 11.0 12.0 0.00 0.00 0.00 31 1008.9
20260503221837 73 80 2.0 3.0 0.00 0.00 0.00 32 1009.1
20260503221337 72 151 4.0 7.0 0.00 0.00 0.00 33 1009.1
20260503220832 72 12 10.0 12.0 0.00 0.00 0.00 31 1009.2
20260503220329 73 23 13.0 17.0 0.00 0.00 0.00 30 1009.2
20260503215825 73 50 4.0 5.0 0.00 0.00 0.00 32 1009.3
20260503215323 72 343 6.0 9.0 0.00 0.00 0.00 30 1009.4
20260503214821 73 339 7.0 10.0 0.00 0.00 0.00 31 1009.4
20260503214318 73 0 9.0 12.0 0.00 0.00 0.00 31 1009.5
20260503213815 72 310 3.0 5.0 0.00 0.00 0.00 33 1009.6
20260503213313 72 313 8.0 10.0 0.00 0.00 0.00 32 1009.7
20260503212809 72 322 9.0 12.0 0.00 0.00 0.00 32 1009.6
20260503212307 73 327 10.0 12.0 0.00 0.00 0.00 32 1009.9
20260503211759 72 193 6.0 9.0 0.00 0.00 0.00 32 1010.0
20260503211255 73 322 11.0 14.0 0.00 0.00 0.00 31 1009.9
20260503210755 71 315 11.0 15.0 0.00 0.00 0.00 32 1010.0
20260503210253 72 316 7.0 10.0 0.00 0.00 0.00 33 1010.2
20260503205748 72 341 13.0 19.0 0.00 0.00 0.00 33 1010.2
20260503205245 72 299 9.0 10.0 0.00 0.00 0.00 30 1010.4
20260503204741 71 323 7.0 14.0 0.00 0.00 0.00 34 1010.3
20260503204239 71 286 4.0 7.0 0.00 0.00 0.00 34 1010.5
20260503203736 72 290 10.0 12.0 0.00 0.00 0.00 31 1010.6
20260503203233 72 295 14.0 19.0 0.00 0.00 0.00 31 1010.6
20260503202730 73 19 8.0 12.0 0.00 0.00 0.00 31 1010.5
20260503202228 72 352 5.0 7.0 0.00 0.00 0.00 33 1010.6
20260503201726 72 324 5.0 9.0 0.00 0.00 0.00 32 1010.7
20260503201223 71 168 10.0 15.0 0.00 0.00 0.00 31 1011.0
20260503200719 71 232 6.0 7.0 0.00 0.00 0.00 33 1010.9
20260503200216 72 322 10.0 12.0 0.00 0.00 0.00 33 1011.0
20260503195713 71 285 5.0 7.0 0.00 0.00 0.00 37 1011.0
20260503195210 71 331 12.0 15.0 0.00 0.00 0.00 33 1011.1
20260503194707 72 333 10.0 14.0 0.00 0.00 0.00 34 1010.9
20260503194202 71 318 17.0 21.0 0.00 0.00 0.00 33 1011.0
20260503193659 71 339 12.0 14.0 0.00 0.00 0.00 33 1011.0
20260503193155 70 324 11.0 15.0 0.00 0.00 0.00 35 1011.2
20260503192651 71 15 12.0 15.0 0.00 0.00 0.00 34 1011.3
20260503192147 71 329 13.0 15.0 0.00 0.00 0.00 35 1011.4
20260503191644 71 34 4.0 7.0 0.00 0.00 0.00 37 1011.1
20260503191141 71 319 11.0 14.0 0.00 0.00 0.00 34 1011.4
20260503190637 71 41 9.0 12.0 0.00 0.00 0.00 34 1011.2
20260503190134 70 347 6.0 10.0 0.00 0.00 0.00 33 1011.5
20260503185631 71 334 11.0 15.0 0.00 0.00 0.00 33 1011.4
20260503185126 70 306 9.0 14.0 0.00 0.00 0.00 34 1011.5
20260503184621 70 329 12.0 19.0 0.00 0.00 0.00 34 1011.5
20260503184118 71 305 8.0 12.0 0.00 0.00 0.00 35 1011.5
20260503183609 70 62 4.0 9.0 0.00 0.00 0.00 37 1011.5
20260503183107 71 327 11.0 12.0 0.00 0.00 0.00 34 1011.9
20260503182605 69 349 17.0 22.0 0.00 0.00 0.00 34 1011.6
20260503182103 70 11 17.0 19.0 0.00 0.00 0.00 35 1012.0
20260503181559 69 344 3.0 3.0 0.00 0.00 0.00 38 1011.9
20260503181055 70 350 12.0 15.0 0.00 0.00 0.00 35 1012.0
20260503180553 70 36 14.0 19.0 0.00 0.00 0.00 34 1012.0
20260503180050 70 329 7.0 10.0 0.00 0.00 0.00 36 1012.1
20260503175547 70 321 6.0 9.0 0.00 0.00 0.00 36 1012.2
20260503175045 70 322 10.0 15.0 0.00 0.00 0.00 36 1012.3
20260503174541 69 23 10.0 14.0 0.00 0.00 0.00 37 1012.3
20260503174037 69 305 6.0 12.0 0.00 0.00 0.00 37 1012.3
20260503173533 69 43 7.0 10.0 0.00 0.00 0.00 36 1012.6
20260503173029 69 159 8.0 12.0 0.00 0.00 0.00 39 1012.6
20260503172527 69 72 5.0 9.0 0.00 0.00 0.00 38 1012.6
20260503172024 69 63 11.0 14.0 0.00 0.00 0.00 37 1012.7
20260503171520 69 2 9.0 10.0 0.00 0.00 0.00 37 1012.6
20260503171018 68 328 5.0 9.0 0.00 0.00 0.00 40 1012.4
20260503170514 69 270 10.0 14.0 0.00 0.00 0.00 38 1012.7